[[{"header":{"parameterUnit":"m.s-1","parameterCategory":2,"la1":30.2991,"la2":30.254,"lo1":-89.0895,"lo2":-89.0444,"dy":0.0017,"dx":0.0017,"nx":28,"ny":28,"refTime":"2025-12-31T09:00:00:Z","depth":"0","parameterNumber":2,"parameterNumberName":"U-component_of_CURRENTS"},"data":[0,0,0,0,0,0,0,0,0,0,0,0,0,0,0,0,0,0,0,0,0,0,0,0,0,0,0,0,0,0,0,0,0,0,0,0,0,0,0,0,0,0,0,0,0,0,0,0,0,0,0,0,0,0,0,0,0,0,0.1803,0.1804,0,0.1842,0.1842,0.1843,0.1852,0.1852,0.1852,0.1852,0.1857,0.1858,0.1858,0,0,0,0,0,0,0,0,0,0,0,0,0,0.1714,0.1715,0.1803,0.1804,0.1805,0.1842,0.1843,0.1843,0.1852,0.1852,0.1852,0.1852,0.1857,0.1857,0.1858,0,0,0,0,0,0,0,0,0,0,0,0,0,0.1751,0.1716,0.1803,0.1815,0.1817,0.1842,0.1843,0.1843,0.1852,0.1852,0.1852,0.1852,0.1857,0.1857,0.1858,0.1863,0,0,0.1859,0.1859,0,0,0,0,0,0,0,0,0.1749,0.1754,0.1813,0.1814,0.1816,0.1844,0.1813,0.1849,0.1852,0.1837,0.1852,0.1852,0.1851,0.1852,0.1857,0.1863,0.1863,0.1859,0.1859,0.1859,0.1859,0,0,0,0,0,0,0,0.1746,0.1752,0.1817,0.1813,0.1815,0.1811,0.1816,0.182,0.1842,0.1838,0.1839,0.1847,0.1851,0.1857,0.1857,0.1863,0.1859,0.1859,0.1859,0.186,0.1884,0.1885,0,0,0,0,0,0,0.1747,0.175,0.1816,0.1818,0.1783,0.1812,0.1818,0.1834,0.1843,0.1845,0.1847,0.1847,0.1857,0.1857,0.1858,0.1876,0.1859,0.186,0.186,0.1884,0.1884,0.1885,0,0,0,0,0,0,0.1745,0.1752,0.1814,0.1786,0.1793,0.1815,0.1832,0.1834,0.1843,0.185,0.1851,0.1852,0.1856,0.1857,0.1869,0.1876,0.186,0.186,0.1883,0.1884,0.1885,0.1905,0,0,0,0,0,0,0.1742,0.1752,0.1761,0.1786,0.1795,0.1831,0.1832,0.1835,0.1848,0.1849,0.1855,0.1856,0.1856,0.1868,0.1869,0.1876,0.186,0.1883,0.1884,0.1884,0.1903,0.1906,0.1908,0,0,0,0,0,0.1739,0.175,0.1761,0.1769,0.1808,0.1831,0.1835,0.1848,0.1848,0.1854,0.1862,0.1855,0.1874,0.1869,0.187,0.1877,0.1882,0.1883,0.1884,0.1902,0.1905,0.1908,0,0,0,0,0,0,0.1714,0.1753,0.1766,0.1788,0.181,0.1833,0.1839,0.1849,0.186,0.186,0.1864,0.1865,0.1877,0.1875,0.1869,0.1886,0.1876,0.1877,0.189,0.1892,0.1895,0.1912,0.1861,0,0,0,0,0,0.1715,0.1733,0.1768,0.1784,0.1797,0.1819,0.1829,0.184,0.1855,0.186,0.1865,0.1872,0.1882,0.1885,0.1892,0.1901,0.1957,0.1905,0.1908,0.1909,0.1924,0.2002,0.2014,0.1888,0.1888,0.1888,0,0,0.1707,0.1733,0.1741,0.178,0.1797,0.1818,0.1824,0.1842,0.1858,0.1858,0.1874,0.188,0.1887,0.1901,0.1905,0.1899,0.1984,0.1911,0.1912,0.1927,0.2005,0.2017,0.2029,0.1889,0.1889,0.1889,0,0,0.17,0.1728,0.174,0.1762,0.1794,0.1813,0.182,0.1847,0.1858,0.1877,0.1883,0.1897,0.1905,0.1918,0.1925,0.1943,0.1994,0.1939,0.1964,0.2039,0.2051,0.2062,0.2194,0.2216,0.1938,0.1939,0.1939,0,0.1688,0.1719,0.1745,0.1766,0.1787,0.1812,0.1832,0.1849,0.1875,0.1894,0.1883,0.1927,0.1917,0.1958,0.1957,0.1949,0.2024,0.1952,0.2045,0.2056,0.2067,0.2199,0.2224,0.194,0.1939,0.1939,0.1939,0,0.1695,0.1721,0.173,0.177,0.1793,0.1814,0.1848,0.1869,0.1884,0.1907,0.195,0.1955,0.1991,0.1977,0.1968,0.2035,0.2078,0.2042,0.2042,0.2082,0.2218,0.2243,0.1941,0.1941,0.194,0.194,0,0,0.1664,0.1724,0.1727,0.1756,0.1801,0.1825,0.1855,0.1902,0.1947,0.196,0.2025,0.2019,0.2043,0.2053,0.2054,0.2096,0.223,0.21,0.2103,0.2241,0.246,0.2518,0.2552,0.2215,0.2219,0.2221,0.2543,0,0.1663,0.1706,0.1735,0.1778,0.1808,0.1848,0.1883,0.1928,0.1971,0.2039,0.2061,0.2119,0.2069,0.2106,0.214,0.2213,0.229,0.215,0.2393,0.2402,0.2455,0.2579,0.2508,0.2789,0.2567,0.2571,0.2574,0,0.1664,0.1698,0.1738,0.181,0.1827,0.1853,0.1939,0.1977,0.2068,0.2107,0.2171,0.2215,0.2301,0.2241,0.2414,0.2336,0.2406,0.245,0.2463,0.2526,0.2505,0.2704,0.2843,0.2731,0.2613,0.261,0.2607,0,0.1647,0.1704,0.1741,0.1762,0.1839,0.1867,0.191,0.1993,0.2059,0.2172,0.2262,0.2347,0.2444,0.2517,0.2621,0.2538,0.2833,0.273,0.2862,0.287,0.2861,0.2862,0.2924,0.2863,0.2863,0.2862,0.2861,0,0.1647,0.1678,0.1736,0.1761,0.1816,0.1868,0.1951,0.2003,0.2124,0.2233,0.2309,0.2442,0.2515,0.2686,0.2723,0.2923,0.2937,0.2924,0.2963,0.287,0.2868,0.2808,0.2749,0.2874,0.2871,0.2869,0.2867,0,0.1632,0.1666,0.1717,0.1789,0.1811,0.1853,0.197,0.2046,0.2162,0.2322,0.2379,0.2573,0.2798,0.2914,0.3088,0.3101,0.3177,0.3297,0.322,0.3242,0.3196,0.3142,0.3201,0.3104,0.3497,0.35,0.3503,0,0.1632,0.1655,0.1728,0.1764,0.1796,0.187,0.193,0.2038,0.2134,0.2408,0.2497,0.2776,0.2953,0.3287,0.3373,0.3546,0.3359,0.3567,0.3354,0.3243,0.3211,0.3029,0.2925,0.3381,0.3383,0.3384,0.3386,0,0.1638,0.166,0.1706,0.1776,0.1832,0.1901,0.1997,0.2072,0.2236,0.2395,0.2631,0.2803,0.316,0.3315,0.3568,0.3634,0.3396,0.36,0.3489,0.3156,0.2961,0.2868,0.3156,0.3398,0.3397,0.3396,0.3395,0.3394,0.1643,0.1675,0.1737,0.18,0.186,0.1923,0.1966,0.2087,0.2228,0.2438,0.2641,0.2858,0.3158,0.3494,0.356,0.3613,0.3517,0.3502,0.3471,0.3314,0.3125,0.3481,0.3738,0.3739,0.374,0.374,0.3741,0,0.1663,0.1703,0.1765,0.1831,0.1881,0.1913,0.201,0.2048,0.2171,0.2377,0.2564,0.2869,0.3102,0.3306,0.3517,0.3466,0.3257,0.3394,0.3074,0.299,0.3339,0.3231,0.3384,0.3384,0.3384,0.3384,0.3384,0.3384,0.1682,0.1739,0.1771,0.1836,0.1874,0.1907,0.1939,0.1986,0.2095,0.2265,0.2418,0.2606,0.2996,0.3332,0.3375,0.3307,0.3001,0.2966,0.2885,0.308,0.3082,0.3084,0.2964,0.3059,0.3059,0.2387,0.2382,0.2378]},{"header":{"parameterUnit":"m.s-1","parameterCategory":2,"la1":30.2991,"la2":30.254,"lo1":-89.0895,"lo2":-89.0444,"dy":0.0017,"dx":0.0017,"nx":28,"ny":28,"refTime":"2025-12-31T09:00:00:Z","depth":"0","parameterNumber":3,"parameterNumberName":"V-component_of_CURRENTS"},"data":[0,0,0,0,0,0,0,0,0,0,0,0,0,0,0,0,0,0,0,0,0,0,0,0,0,0,0,0,0,0,0,0,0,0,0,0,0,0,0,0,0,0,0,0,0,0,0,0,0,0,0,0,0,0,0,0,0,0,-0.03,-0.0301,0,-0.036,-0.0361,-0.0361,-0.0414,-0.0414,-0.0415,-0.0415,-0.0499,-0.0501,-0.0502,0,0,0,0,0,0,0,0,0,0,0,0,0,-0.0256,-0.0256,-0.03,-0.0301,-0.0302,-0.036,-0.0361,-0.0361,-0.0414,-0.0414,-0.0415,-0.0416,-0.0498,-0.05,-0.0503,0,0,0,0,0,0,0,0,0,0,0,0,0,-0.0291,-0.0256,-0.03,-0.0334,-0.0338,-0.036,-0.0361,-0.0362,-0.0414,-0.0414,-0.0415,-0.0416,-0.0498,-0.05,-0.0503,-0.0501,0,0,-0.0511,-0.0512,0,0,0,0,0,0,0,0,-0.0289,-0.0293,-0.0329,-0.0332,-0.0336,-0.038,-0.0376,-0.0409,-0.0413,-0.0385,-0.0415,-0.0416,-0.0461,-0.0466,-0.0476,-0.0505,-0.0509,-0.0511,-0.0512,-0.0513,-0.0514,0,0,0,0,0,0,0,-0.0287,-0.0291,-0.0324,-0.0329,-0.0334,-0.0355,-0.0361,-0.0382,-0.0418,-0.0388,-0.0392,-0.0397,-0.0463,-0.0473,-0.0478,-0.051,-0.0511,-0.0513,-0.0515,-0.0516,-0.0564,-0.0564,0,0,0,0,0,0,-0.0276,-0.0288,-0.0322,-0.0326,-0.0314,-0.0355,-0.0362,-0.0365,-0.0417,-0.0426,-0.0397,-0.04,-0.0468,-0.0475,-0.0481,-0.0495,-0.0513,-0.0516,-0.0517,-0.0565,-0.0564,-0.0564,0,0,0,0,0,0,-0.0275,-0.0279,-0.032,-0.0308,-0.0315,-0.0355,-0.0359,-0.0366,-0.0376,-0.0424,-0.0433,-0.0399,-0.0469,-0.0478,-0.0501,-0.0498,-0.0517,-0.0519,-0.0565,-0.0565,-0.0564,-0.0514,0,0,0,0,0,0,-0.0274,-0.0278,-0.0273,-0.0308,-0.0315,-0.0322,-0.0358,-0.0367,-0.0378,-0.0382,-0.0428,-0.0437,-0.0471,-0.0497,-0.0504,-0.0502,-0.0521,-0.0565,-0.0565,-0.0564,-0.0516,-0.0512,-0.0508,0,0,0,0,0,-0.0272,-0.0256,-0.0273,-0.0277,-0.0309,-0.0321,-0.0327,-0.0359,-0.0377,-0.0372,-0.0411,-0.0436,-0.05,-0.0499,-0.0507,-0.0505,-0.0565,-0.0565,-0.0564,-0.0517,-0.0512,-0.0508,0,0,0,0,0,0,-0.0228,-0.0261,-0.028,-0.0274,-0.0294,-0.033,-0.0327,-0.0351,-0.0377,-0.0383,-0.0432,-0.0442,-0.0463,-0.0488,-0.0486,-0.0518,-0.0537,-0.0538,-0.0498,-0.0494,-0.049,-0.0496,-0.0523,0,0,0,0,0,-0.0217,-0.0218,-0.0251,-0.0246,-0.0253,-0.0289,-0.0298,-0.0319,-0.0348,-0.0361,-0.0395,-0.0433,-0.0466,-0.0482,-0.0512,-0.0524,-0.0538,-0.0529,-0.0525,-0.0522,-0.0532,-0.0556,-0.0556,-0.0563,-0.0563,-0.0563,0,0,-0.0199,-0.0217,-0.0217,-0.0237,-0.0256,-0.0261,-0.0296,-0.0301,-0.0313,-0.0365,-0.0384,-0.0418,-0.0467,-0.0487,-0.0498,-0.0508,-0.0518,-0.0521,-0.0518,-0.0531,-0.0556,-0.0555,-0.0555,-0.0562,-0.0562,-0.0562,0,0,-0.0161,-0.0177,-0.0167,-0.0182,-0.0205,-0.0229,-0.0228,-0.0261,-0.0281,-0.03,-0.0348,-0.0382,-0.0419,-0.0462,-0.0488,-0.048,-0.0498,-0.0482,-0.047,-0.0492,-0.0492,-0.0492,-0.0468,-0.0466,-0.0481,-0.0481,-0.0481,0,-0.0136,-0.0137,-0.0164,-0.016,-0.0172,-0.0212,-0.0209,-0.0231,-0.0269,-0.0288,-0.0298,-0.0375,-0.0413,-0.0459,-0.0463,-0.0473,-0.0472,-0.0481,-0.0487,-0.0488,-0.0489,-0.0464,-0.0463,-0.0478,-0.0479,-0.0479,-0.0479,0,-0.01,-0.0102,-0.0093,-0.0111,-0.0123,-0.0123,-0.0162,-0.0177,-0.0207,-0.0237,-0.0279,-0.0332,-0.038,-0.0397,-0.0432,-0.0461,-0.045,-0.0477,-0.0497,-0.0485,-0.0459,-0.0459,-0.0475,-0.0476,-0.0476,-0.0477,0,0,-0.0044,-0.0065,-0.0063,-0.0071,-0.0101,-0.0107,-0.0126,-0.016,-0.0162,-0.0214,-0.0218,-0.0307,-0.0336,-0.0368,-0.0412,-0.0444,-0.0439,-0.0462,-0.0464,-0.0433,-0.0449,-0.0418,-0.0415,-0.0466,-0.0466,-0.0467,-0.0413,0,-0.0011,0.0002,-0.0022,-0.0017,-0.0018,-0.0065,-0.0074,-0.0111,-0.0135,-0.0139,-0.0218,-0.023,-0.0323,-0.0324,-0.0381,-0.0411,-0.0443,-0.0449,-0.047,-0.047,-0.0442,-0.0417,-0.0431,-0.0383,-0.0413,-0.0413,-0.0413,0,0.0026,0.0026,0.0038,0.0017,0.0015,0.0012,-0.0013,-0.0023,-0.0054,-0.0064,-0.0114,-0.0149,-0.0207,-0.0267,-0.0361,-0.0355,-0.0411,-0.0446,-0.0445,-0.0443,-0.0441,-0.0409,-0.0382,-0.0594,-0.0413,-0.0413,-0.0413,0,0.0066,0.0064,0.0071,0.0065,0.0042,0.0035,0.0024,-0.0004,0.0024,0.0001,0.0057,-0.0061,-0.0044,-0.0169,-0.0255,-0.0302,-0.0319,-0.0387,-0.0419,-0.0415,-0.0447,-0.0445,-0.0631,-0.0468,-0.0468,-0.0468,-0.0468,0,0.0101,0.0108,0.0093,0.0097,0.0116,0.0082,0.012,0.0092,0.0128,0.0216,0.0111,0.0188,-0.0018,-0.0048,-0.0189,-0.0272,-0.0271,-0.041,-0.0408,-0.0424,-0.042,-0.0623,-0.0717,-0.0466,-0.0467,-0.0467,-0.0467,0,0.0143,0.0131,0.0144,0.0133,0.0136,0.0151,0.0207,0.0259,0.0276,0.0408,0.0427,0.04,0.0359,0.0177,0.0029,-0.0132,-0.0339,-0.0283,-0.026,-0.0259,-0.0525,-0.0613,-0.0744,-0.0808,-0.0327,-0.0326,-0.0325,0,0.0166,0.0177,0.0185,0.0222,0.0223,0.0259,0.0311,0.0323,0.0426,0.057,0.0674,0.0667,0.0707,0.0502,0.0194,-0.0041,-0.025,-0.0218,-0.0349,-0.0537,-0.0634,-0.0705,-0.0756,-0.035,-0.0349,-0.0349,-0.0348,0,0.0219,0.022,0.0238,0.0321,0.0376,0.0452,0.0545,0.0657,0.0744,0.0876,0.1071,0.1115,0.0913,0.0671,0.0319,0.0114,-0.0357,-0.0216,-0.0441,-0.0692,-0.0753,-0.0813,-0.0355,-0.0344,-0.0345,-0.0345,-0.0345,-0.0345,0.0268,0.0307,0.036,0.0443,0.0524,0.0682,0.0801,0.0939,0.1131,0.1366,0.1374,0.1455,0.105,0.0561,0.0281,-0.0319,-0.0309,-0.0538,-0.0626,-0.068,-0.0771,-0.0275,-0.0251,-0.0251,-0.0251,-0.025,-0.025,0,0.0362,0.0418,0.0499,0.0624,0.077,0.0779,0.0998,0.1153,0.1422,0.1546,0.1693,0.1505,0.1029,0.0486,-0.0272,-0.0673,-0.0848,-0.091,-0.1072,-0.1104,-0.0699,-0.0736,-0.0779,-0.0779,-0.0779,-0.0779,-0.0779,-0.0778,0.0423,0.0532,0.0583,0.0838,0.0946,0.1172,0.1321,0.1519,0.1647,0.1814,0.1801,0.1774,0.135,0.0021,-0.0895,-0.1117,-0.1418,-0.1461,-0.1575,-0.1385,-0.136,-0.1336,-0.1399,-0.1581,-0.1582,-0.1968,-0.1972,-0.1975]}],[{"header":{"parameterUnit":"m.s-1","parameterCategory":2,"la1":30.2991,"la2":30.254,"lo1":-89.0895,"lo2":-89.0444,"dy":0.0017,"dx":0.0017,"nx":28,"ny":28,"refTime":"2025-12-31T09:00:00:Z","depth":"2","parameterNumber":2,"parameterNumberName":"U-component_of_CURRENTS"},"data":[0,0,0,0,0,0,0,0,0,0,0,0,0,0,0,0,0,0,0,0,0,0,0,0,0,0,0,0,0,0,0,0,0,0,0,0,0,0,0,0,0,0,0,0,0,0,0,0,0,0,0,0,0,0,0,0,0,0,0.1382,0.1383,0,0.1447,0.1447,0.1448,0.1469,0.1469,0.1469,0.1469,0.1497,0.1497,0.1498,0,0,0,0,0,0,0,0,0,0,0,0,0,0.1279,0.128,0.1382,0.1383,0.1384,0.1447,0.1447,0.1448,0.1469,0.1469,0.1469,0.1469,0.1496,0.1497,0.1498,0,0,0,0,0,0,0,0,0,0,0,0,0,0.1328,0.1281,0.1382,0.1405,0.1408,0.1446,0.1447,0.1448,0.1469,0.1469,0.1469,0.1469,0.1496,0.1497,0.1498,0.1502,0,0,0.1501,0.1501,0,0,0,0,0,0,0,0,0.1325,0.1331,0.1401,0.1404,0.1407,0.1453,0.1421,0.1465,0.1469,0.1442,0.1469,0.1469,0.1481,0.1483,0.149,0.1503,0.1504,0.1501,0.1502,0.1502,0.1502,0,0,0,0,0,0,0,0.1322,0.1329,0.1404,0.1402,0.1406,0.1414,0.142,0.1429,0.1456,0.1444,0.1447,0.146,0.1482,0.1489,0.1491,0.1505,0.1501,0.1502,0.1503,0.1503,0.1543,0.1544,0,0,0,0,0,0,0.1322,0.1326,0.1402,0.1406,0.137,0.1416,0.1423,0.1435,0.1457,0.1462,0.146,0.1461,0.1488,0.149,0.1492,0.1525,0.1502,0.1503,0.1504,0.1543,0.1543,0.1544,0,0,0,0,0,0,0.1319,0.1328,0.1399,0.137,0.138,0.1418,0.1431,0.1437,0.1456,0.147,0.1474,0.1476,0.1488,0.1491,0.1515,0.1525,0.1503,0.1504,0.1542,0.1543,0.1544,0.1573,0,0,0,0,0,0,0.1316,0.1326,0.1336,0.137,0.1382,0.143,0.1432,0.1438,0.1465,0.1467,0.1485,0.1487,0.1488,0.1514,0.1516,0.1526,0.1505,0.1542,0.1543,0.1543,0.1571,0.1574,0.1577,0,0,0,0,0,0.1312,0.1326,0.1336,0.1346,0.1394,0.1431,0.1438,0.1462,0.1466,0.1478,0.1493,0.1487,0.1521,0.1516,0.1518,0.1528,0.1541,0.1542,0.1543,0.157,0.1574,0.1577,0,0,0,0,0,0,0.1285,0.1331,0.1343,0.137,0.1402,0.1437,0.1453,0.1468,0.149,0.1492,0.1499,0.1503,0.1524,0.1524,0.1518,0.1541,0.1527,0.1529,0.1547,0.155,0.1553,0.1577,0.1506,0,0,0,0,0,0.1285,0.131,0.135,0.1374,0.139,0.1422,0.1441,0.1459,0.1484,0.1494,0.1507,0.1517,0.1529,0.1539,0.1546,0.1565,0.1611,0.157,0.1573,0.1576,0.1597,0.1667,0.1679,0.1547,0.1547,0.1547,0,0,0.1282,0.1312,0.1326,0.1371,0.1396,0.1421,0.1433,0.1467,0.1488,0.1492,0.1521,0.1529,0.1535,0.1555,0.1564,0.1559,0.1642,0.1577,0.158,0.16,0.1669,0.1682,0.1694,0.1548,0.1548,0.1548,0,0,0.1286,0.1314,0.1334,0.1363,0.1408,0.1428,0.144,0.1479,0.1497,0.1528,0.1532,0.1554,0.157,0.1582,0.1588,0.1613,0.1653,0.1608,0.1648,0.1715,0.1727,0.1738,0.1839,0.1859,0.1612,0.1612,0.1612,0,0.1281,0.1312,0.1345,0.1371,0.1399,0.1431,0.1457,0.1479,0.1521,0.1549,0.1539,0.1594,0.1584,0.163,0.1631,0.1621,0.1684,0.1633,0.1722,0.1733,0.1744,0.1845,0.1866,0.1614,0.1614,0.1613,0.1613,0,0.1297,0.1326,0.1342,0.1385,0.1416,0.1446,0.1485,0.1513,0.1536,0.157,0.1625,0.1631,0.1677,0.1659,0.165,0.1719,0.175,0.1716,0.1717,0.176,0.1863,0.1885,0.1616,0.1615,0.1615,0.1615,0,0,0.1276,0.134,0.1346,0.1376,0.1429,0.146,0.1496,0.1553,0.1606,0.1634,0.171,0.171,0.1746,0.1755,0.1755,0.1794,0.191,0.1793,0.1795,0.1903,0.2107,0.2076,0.2098,0.1902,0.1905,0.1908,0.2158,0,0.128,0.1328,0.1359,0.1411,0.1444,0.1488,0.1528,0.1586,0.1639,0.1718,0.1749,0.1817,0.1775,0.1815,0.1851,0.1899,0.1967,0.1849,0.2042,0.2048,0.2023,0.212,0.1892,0.2091,0.218,0.2184,0.2186,0,0.1285,0.1322,0.1369,0.1447,0.1466,0.1501,0.1596,0.1643,0.1749,0.1794,0.1878,0.1928,0.2015,0.1958,0.2104,0.2041,0.2087,0.2112,0.2121,0.2099,0.2057,0.2057,0.2128,0.2223,0.222,0.2218,0.2215,0,0.1265,0.1333,0.1374,0.1399,0.1483,0.1521,0.1573,0.1672,0.1751,0.1874,0.1971,0.206,0.2157,0.221,0.228,0.2214,0.2445,0.2357,0.2386,0.2386,0.2233,0.2213,0.2471,0.2471,0.247,0.247,0.2469,0,0.1263,0.13,0.1374,0.1398,0.1467,0.1531,0.1633,0.1688,0.1829,0.1954,0.2034,0.2164,0.2227,0.2366,0.2372,0.2484,0.2539,0.2438,0.2455,0.2238,0.2216,0.2342,0.2324,0.2479,0.2477,0.2475,0.2474,0,0.1244,0.1284,0.1345,0.1432,0.1459,0.152,0.1666,0.1755,0.1886,0.2062,0.2123,0.2306,0.2469,0.2548,0.2666,0.2636,0.2705,0.2725,0.2488,0.2469,0.2581,0.2561,0.2788,0.2789,0.279,0.2791,0.2791,0,0.1239,0.1266,0.1359,0.1409,0.1452,0.1553,0.1626,0.1754,0.1864,0.2147,0.2236,0.247,0.2565,0.2763,0.2755,0.2812,0.282,0.2653,0.2448,0.2624,0.2618,0.2596,0.2575,0.2279,0.2276,0.2273,0.2271,0,0.1238,0.1274,0.1322,0.1418,0.1495,0.1593,0.1713,0.1793,0.1978,0.2121,0.2323,0.2422,0.262,0.2573,0.2674,0.2651,0.2608,0.2595,0.2882,0.2214,0.2159,0.2147,0.2141,0.2244,0.2247,0.2249,0.225,0.2251,0.1237,0.1281,0.1353,0.1438,0.1527,0.1624,0.1677,0.1798,0.1929,0.21,0.2252,0.233,0.2382,0.2394,0.2382,0.2397,0.2519,0.2391,0.2394,0.2402,0.2278,0.2224,0.2303,0.2306,0.2309,0.2311,0.2313,0,0.1257,0.1307,0.1383,0.1483,0.156,0.162,0.1732,0.174,0.1823,0.1974,0.2071,0.1959,0.1961,0.2055,0.2021,0.2038,0.1949,0.1978,0.183,0.1859,0.1883,0.1726,0.1609,0.1607,0.1606,0.1604,0,0,0.1273,0.1331,0.1368,0.1476,0.1558,0.1616,0.1654,0.1633,0.1687,0.1682,0.1727,0.1856,0.1968,0.1757,0.1743,0.1682,0.1747,0.1622,0.2183,0.2035,0.2057,0.2122,0.1913,0,0,0,0,0]},{"header":{"parameterUnit":"m.s-1","parameterCategory":2,"la1":30.2991,"la2":30.254,"lo1":-89.0895,"lo2":-89.0444,"dy":0.0017,"dx":0.0017,"nx":28,"ny":28,"refTime":"2025-12-31T09:00:00:Z","depth":"2","parameterNumber":3,"parameterNumberName":"V-component_of_CURRENTS"},"data":[0,0,0,0,0,0,0,0,0,0,0,0,0,0,0,0,0,0,0,0,0,0,0,0,0,0,0,0,0,0,0,0,0,0,0,0,0,0,0,0,0,0,0,0,0,0,0,0,0,0,0,0,0,0,0,0,0,0,-0.0243,-0.0244,0,-0.0307,-0.0308,-0.0308,-0.0357,-0.0358,-0.0358,-0.0359,-0.0451,-0.0453,-0.0455,0,0,0,0,0,0,0,0,0,0,0,0,0,-0.0196,-0.0196,-0.0243,-0.0244,-0.0244,-0.0307,-0.0308,-0.0308,-0.0357,-0.0358,-0.0358,-0.0359,-0.045,-0.0452,-0.0455,0,0,0,0,0,0,0,0,0,0,0,0,0,-0.0233,-0.0196,-0.0243,-0.0277,-0.028,-0.0307,-0.0308,-0.0309,-0.0357,-0.0358,-0.0359,-0.0359,-0.0449,-0.0452,-0.0455,-0.0458,0,0,-0.0464,-0.0465,0,0,0,0,0,0,0,0,-0.0231,-0.0235,-0.0271,-0.0274,-0.0279,-0.0325,-0.0325,-0.036,-0.0357,-0.0327,-0.0359,-0.036,-0.0411,-0.0417,-0.0427,-0.0463,-0.0467,-0.0464,-0.0466,-0.0467,-0.0468,0,0,0,0,0,0,0,-0.0228,-0.0232,-0.0268,-0.0272,-0.0276,-0.03,-0.0306,-0.0332,-0.0364,-0.033,-0.0334,-0.0342,-0.0413,-0.0423,-0.0429,-0.0468,-0.0464,-0.0467,-0.0469,-0.047,-0.0533,-0.0533,0,0,0,0,0,0,-0.0219,-0.023,-0.0266,-0.027,-0.0257,-0.03,-0.0307,-0.0309,-0.0364,-0.0373,-0.0341,-0.0344,-0.0418,-0.0426,-0.0433,-0.0454,-0.0467,-0.047,-0.0472,-0.0533,-0.0533,-0.0533,0,0,0,0,0,0,-0.0217,-0.0221,-0.0263,-0.0252,-0.0259,-0.03,-0.0303,-0.031,-0.0323,-0.0372,-0.0381,-0.0347,-0.0419,-0.0428,-0.046,-0.0458,-0.0472,-0.0474,-0.0533,-0.0533,-0.0533,-0.0489,0,0,0,0,0,0,-0.0215,-0.022,-0.0217,-0.0251,-0.0259,-0.0273,-0.0302,-0.0311,-0.0327,-0.0331,-0.038,-0.0389,-0.042,-0.0455,-0.0463,-0.0462,-0.0477,-0.0533,-0.0533,-0.0533,-0.049,-0.0487,-0.0484,0,0,0,0,0,-0.0213,-0.0203,-0.0216,-0.0221,-0.0254,-0.0272,-0.0278,-0.031,-0.0326,-0.0326,-0.0365,-0.0387,-0.0459,-0.0457,-0.0466,-0.0467,-0.0533,-0.0533,-0.0533,-0.0492,-0.0488,-0.0484,0,0,0,0,0,0,-0.0177,-0.0208,-0.0224,-0.0222,-0.0244,-0.0281,-0.0283,-0.0305,-0.0335,-0.0341,-0.0388,-0.0399,-0.0426,-0.045,-0.0447,-0.0484,-0.0499,-0.0501,-0.0465,-0.0461,-0.0458,-0.0464,-0.0479,0,0,0,0,0,-0.0168,-0.0171,-0.0203,-0.0202,-0.021,-0.0246,-0.0257,-0.0278,-0.0309,-0.0323,-0.0358,-0.0396,-0.043,-0.0449,-0.0479,-0.0498,-0.0517,-0.0504,-0.0501,-0.0498,-0.0508,-0.0539,-0.054,-0.0532,-0.0532,-0.0532,0,0,-0.0154,-0.0171,-0.0173,-0.0195,-0.0214,-0.0222,-0.0254,-0.0266,-0.0278,-0.0328,-0.0351,-0.0386,-0.0433,-0.0457,-0.0471,-0.0479,-0.0503,-0.0498,-0.0495,-0.0507,-0.0539,-0.054,-0.0541,-0.0532,-0.0532,-0.0532,0,0,-0.0126,-0.0141,-0.0135,-0.0151,-0.0176,-0.0199,-0.02,-0.0234,-0.0255,-0.0279,-0.0322,-0.0359,-0.04,-0.044,-0.0465,-0.0463,-0.0485,-0.0466,-0.0458,-0.0487,-0.0488,-0.0489,-0.0481,-0.0482,-0.0465,-0.0465,-0.0465,0,-0.0108,-0.0108,-0.0135,-0.0134,-0.0147,-0.0186,-0.0184,-0.0208,-0.0249,-0.0271,-0.028,-0.036,-0.0396,-0.0444,-0.0446,-0.0457,-0.0465,-0.0466,-0.0483,-0.0484,-0.0487,-0.0478,-0.048,-0.0463,-0.0463,-0.0463,-0.0464,0,-0.008,-0.0082,-0.0077,-0.0094,-0.0107,-0.0111,-0.0148,-0.0166,-0.0195,-0.0228,-0.0275,-0.0326,-0.0376,-0.039,-0.0422,-0.0456,-0.0451,-0.0472,-0.049,-0.0485,-0.0476,-0.0478,-0.046,-0.0461,-0.0461,-0.0462,0,0,-0.0039,-0.0055,-0.0054,-0.0058,-0.0088,-0.0096,-0.0116,-0.0151,-0.0158,-0.0213,-0.0224,-0.0309,-0.034,-0.0371,-0.0412,-0.0447,-0.0458,-0.0465,-0.0467,-0.0453,-0.0493,-0.0507,-0.051,-0.0481,-0.0482,-0.0483,-0.0469,0,-0.0012,0.0001,-0.002,-0.0015,-0.0014,-0.0057,-0.0069,-0.0108,-0.0136,-0.0149,-0.0229,-0.0248,-0.0331,-0.0334,-0.0393,-0.043,-0.0468,-0.0458,-0.0505,-0.0506,-0.0517,-0.0516,-0.0507,-0.0496,-0.0472,-0.0472,-0.0473,0,0.0017,0.002,0.0033,0.0019,0.0016,0.0012,-0.0014,-0.0027,-0.0069,-0.0084,-0.0141,-0.0181,-0.0246,-0.0295,-0.0404,-0.039,-0.0449,-0.0489,-0.0489,-0.0526,-0.0526,-0.0506,-0.0502,-0.0477,-0.0477,-0.0476,-0.0476,0,0.0053,0.0054,0.0064,0.0059,0.0041,0.0034,0.0022,-0.0014,0.0007,-0.003,0.0015,-0.0112,-0.0103,-0.0233,-0.0333,-0.0362,-0.0423,-0.0466,-0.054,-0.0539,-0.0556,-0.0556,-0.0554,-0.0554,-0.0554,-0.0554,-0.0554,0,0.0084,0.0092,0.0084,0.0089,0.0106,0.0075,0.0104,0.0074,0.0098,0.0167,0.0061,0.0111,-0.0086,-0.0141,-0.0284,-0.0406,-0.0391,-0.0542,-0.0549,-0.0536,-0.0535,-0.0549,-0.0549,-0.0554,-0.0554,-0.0554,-0.0554,0,0.0117,0.0111,0.0127,0.0121,0.0124,0.0135,0.0184,0.0226,0.0234,0.0342,0.0353,0.0299,0.021,0.0023,-0.0145,-0.0297,-0.0437,-0.0487,-0.0443,-0.0448,-0.0546,-0.0543,-0.0578,-0.0579,-0.058,-0.058,-0.058,0,0.0135,0.0147,0.0161,0.0196,0.0197,0.0228,0.0273,0.0283,0.0369,0.0475,0.0558,0.0503,0.0443,0.0179,-0.0094,-0.0355,-0.0392,-0.0493,-0.0581,-0.0552,-0.0554,-0.0551,-0.0548,-0.0562,-0.0562,-0.0562,-0.0562,0,0.0174,0.0179,0.0196,0.0275,0.0325,0.0397,0.0478,0.0569,0.0641,0.0725,0.083,0.0776,0.0524,0.0226,-0.013,-0.0305,-0.0467,-0.0505,-0.0477,-0.0566,-0.0538,-0.054,-0.0537,-0.0564,-0.0564,-0.0564,-0.0563,-0.0563,0.0207,0.0242,0.0292,0.0367,0.0448,0.0589,0.0687,0.0782,0.0912,0.104,0.0989,0.0911,0.0572,0.0078,-0.0194,-0.0451,-0.0476,-0.0592,-0.0591,-0.059,-0.06,-0.0576,-0.0607,-0.0607,-0.0607,-0.0607,-0.0607,0,0.027,0.0323,0.0399,0.0515,0.0648,0.0673,0.0855,0.0931,0.1088,0.1128,0.1127,0.0809,0.0452,0.0134,-0.0268,-0.0553,-0.0577,-0.0612,-0.0592,-0.059,-0.0589,-0.0598,-0.0605,-0.0605,-0.0605,-0.0606,0,0,0.0311,0.0401,0.045,0.0677,0.0791,0.0986,0.1109,0.1167,0.121,0.1191,0.1143,0.0937,0.0529,0.024,-0.0141,-0.0347,-0.0393,-0.0387,-0.037,-0.0301,-0.0295,-0.057,-0.0583,0,0,0,0,0]}],[{"header":{"parameterUnit":"m.s-1","parameterCategory":2,"la1":30.2991,"la2":30.254,"lo1":-89.0895,"lo2":-89.0444,"dy":0.0017,"dx":0.0017,"nx":28,"ny":28,"refTime":"2025-12-31T09:00:00:Z","depth":"4","parameterNumber":2,"parameterNumberName":"U-component_of_CURRENTS"},"data":[0,0,0,0,0,0,0,0,0,0,0,0,0,0,0,0,0,0,0,0,0,0,0,0,0,0,0,0,0,0,0,0,0,0,0,0,0,0,0,0,0,0,0,0,0,0,0,0,0,0,0,0,0,0,0,0,0,0,0.0609,0.061,0,0.0683,0.0684,0.0685,0.0753,0.0753,0.0754,0.0755,0.0808,0.0808,0.0809,0,0,0,0,0,0,0,0,0,0,0,0,0,0.0504,0.0506,0.0609,0.061,0.0611,0.0683,0.0684,0.0685,0.0752,0.0753,0.0755,0.0756,0.0807,0.0808,0.0809,0,0,0,0,0,0,0,0,0,0,0,0,0,0.056,0.0506,0.0609,0.0654,0.0659,0.0683,0.0684,0.0685,0.0752,0.0753,0.0755,0.0756,0.0807,0.0808,0.0809,0.0787,0,0,0.0811,0.0812,0,0,0,0,0,0,0,0,0.0557,0.0564,0.0646,0.0651,0.0656,0.0711,0.0667,0.0719,0.0752,0.0716,0.0755,0.0757,0.0773,0.0777,0.0787,0.0789,0.0792,0.0811,0.0812,0.0812,0.0813,0,0,0,0,0,0,0,0.0553,0.0561,0.0637,0.0647,0.0653,0.0664,0.0673,0.0677,0.0734,0.0719,0.0724,0.0734,0.0776,0.0786,0.0788,0.0792,0.0811,0.0812,0.0813,0.0813,0.0867,0.0868,0,0,0,0,0,0,0.0546,0.0557,0.0635,0.064,0.061,0.0664,0.0675,0.0691,0.0735,0.0744,0.0732,0.0737,0.0783,0.0787,0.079,0.0844,0.0812,0.0813,0.0814,0.0866,0.0867,0.0868,0,0,0,0,0,0,0.0543,0.0552,0.0632,0.0601,0.0612,0.0665,0.0682,0.0692,0.0731,0.0746,0.0754,0.0765,0.0785,0.0789,0.0819,0.0844,0.0813,0.0814,0.0865,0.0866,0.0868,0.0902,0,0,0,0,0,0,0.054,0.0551,0.0569,0.06,0.0613,0.0666,0.0682,0.0693,0.0734,0.074,0.0776,0.0781,0.0786,0.0818,0.082,0.0844,0.0815,0.0864,0.0866,0.0867,0.0899,0.0904,0.0908,0,0,0,0,0,0.0536,0.0555,0.0569,0.0579,0.0633,0.0667,0.0675,0.0716,0.0734,0.0755,0.0779,0.0781,0.0831,0.0819,0.0821,0.0847,0.0863,0.0865,0.0867,0.0897,0.0903,0.0908,0,0,0,0,0,0,0.052,0.0564,0.0581,0.0613,0.0646,0.068,0.0707,0.0727,0.0763,0.0776,0.0788,0.0794,0.0833,0.0831,0.0818,0.0868,0.0849,0.0851,0.0871,0.0876,0.0881,0.0863,0.0816,0,0,0,0,0,0.0522,0.0548,0.0588,0.0613,0.0636,0.0673,0.0696,0.0723,0.0753,0.0772,0.0796,0.0818,0.0837,0.0851,0.0868,0.0886,0.0899,0.0906,0.091,0.0914,0.0902,0.0945,0.0952,0.0875,0.0875,0.0875,0,0,0.052,0.0548,0.0563,0.0612,0.0643,0.0673,0.0692,0.0735,0.0758,0.0768,0.0815,0.0837,0.0847,0.0879,0.0895,0.0883,0.0949,0.0917,0.092,0.0905,0.0948,0.0955,0.0962,0.0877,0.0876,0.0876,0,0,0.0524,0.056,0.0586,0.0614,0.0666,0.0688,0.0705,0.0754,0.0783,0.082,0.0837,0.0866,0.0902,0.091,0.0917,0.0949,0.0973,0.0971,0.0975,0.1018,0.1025,0.1031,0.1081,0.1091,0.097,0.097,0.097,0,0.0522,0.0558,0.0597,0.0629,0.0653,0.0696,0.0726,0.0754,0.0805,0.0823,0.0843,0.0903,0.091,0.0937,0.0951,0.0958,0.0996,0.0956,0.1024,0.103,0.1035,0.1085,0.1096,0.0972,0.0971,0.0971,0.0971,0,0.0545,0.0577,0.0596,0.0647,0.0679,0.071,0.0754,0.0791,0.083,0.0852,0.0907,0.0929,0.0968,0.0975,0.097,0.1014,0.1035,0.1029,0.101,0.1045,0.1096,0.1106,0.0974,0.0974,0.0973,0.0973,0,0,0.053,0.0597,0.0606,0.0626,0.0692,0.0714,0.0762,0.0806,0.0831,0.089,0.0936,0.0961,0.0993,0.1001,0.1017,0.1034,0.1105,0.105,0.1051,0.1098,0.1225,0.1155,0.116,0.1128,0.1129,0.1131,0.1254,0,0.0538,0.0587,0.0622,0.066,0.0689,0.0737,0.0763,0.0808,0.0858,0.0912,0.0952,0.1007,0.1,0.1042,0.1061,0.1096,0.1131,0.1073,0.1184,0.1187,0.1119,0.1168,0.1135,0.1262,0.1264,0.1266,0.1267,0,0.0549,0.0581,0.0623,0.066,0.0678,0.0705,0.0764,0.0795,0.0868,0.0919,0.0992,0.1043,0.1102,0.1096,0.1177,0.1153,0.1193,0.1208,0.1214,0.1135,0.1134,0.1214,0.1286,0.1284,0.1283,0.1282,0.1281,0,0.0515,0.0574,0.0602,0.062,0.0675,0.0703,0.0737,0.08,0.0848,0.095,0.1021,0.1088,0.117,0.1212,0.1248,0.1245,0.1324,0.1331,0.1305,0.1303,0.1313,0.1305,0.139,0.139,0.139,0.139,0.1389,0,0.0498,0.0517,0.0591,0.0602,0.0627,0.0682,0.072,0.0769,0.0876,0.0931,0.1035,0.1106,0.1207,0.1267,0.1281,0.1316,0.1367,0.131,0.1326,0.1328,0.1321,0.1322,0.1313,0.1394,0.1393,0.1392,0.1392,0,0.0446,0.0495,0.0511,0.0576,0.061,0.0622,0.0729,0.0756,0.0872,0.097,0.1029,0.1173,0.1268,0.1328,0.1403,0.1371,0.1391,0.1387,0.139,0.1403,0.1347,0.1338,0.1415,0.1413,0.1412,0.1411,0.141,0,0.0421,0.0433,0.0488,0.0503,0.0536,0.0589,0.0627,0.0746,0.0803,0.098,0.1026,0.119,0.1267,0.1333,0.1375,0.1431,0.1409,0.141,0.1369,0.134,0.1349,0.1342,0.1335,0.1408,0.1408,0.1407,0.1407,0,0.0361,0.0377,0.0389,0.0441,0.0478,0.0521,0.0605,0.0661,0.0793,0.091,0.1045,0.1137,0.1247,0.1319,0.1368,0.1382,0.1397,0.1397,0.1401,0.1363,0.1333,0.1341,0.1336,0.1403,0.1403,0.1404,0.1404,0,0.0304,0.0288,0.0325,0.0359,0.0412,0.0466,0.0506,0.0615,0.0708,0.0927,0.0948,0.1109,0.1229,0.1293,0.1307,0.1347,0.136,0.1309,0.1318,0.1323,0.123,0.1175,0.1216,0,0,0,0,0,0.0252,0.0246,0.0263,0.0299,0.0357,0.041,0.0505,0.0556,0.0693,0.0778,0.0889,0.0989,0.1115,0.1178,0.1215,0.1263,0.1337,0.1294,0.1274,0.1378,0.1383,0.1279,0,0,0,0,0,0,0.0214,0.022,0.0234,0.0271,0.0306,0.0376,0.0434,0.0519,0.0587,0.0733,0.0814,0.0928,0.1061,0.1107,0.1199,0.1219,0.1186,0.1391,0.1389,0.1375,0.138,0.1384,0.1278,0,0,0,0,0]},{"header":{"parameterUnit":"m.s-1","parameterCategory":2,"la1":30.2991,"la2":30.254,"lo1":-89.0895,"lo2":-89.0444,"dy":0.0017,"dx":0.0017,"nx":28,"ny":28,"refTime":"2025-12-31T09:00:00:Z","depth":"4","parameterNumber":3,"parameterNumberName":"V-component_of_CURRENTS"},"data":[0,0,0,0,0,0,0,0,0,0,0,0,0,0,0,0,0,0,0,0,0,0,0,0,0,0,0,0,0,0,0,0,0,0,0,0,0,0,0,0,0,0,0,0,0,0,0,0,0,0,0,0,0,0,0,0,0,0,0.0052,0.0052,0,-0.0002,-0.0002,-0.0003,-0.0047,-0.0048,-0.0048,-0.0049,-0.0122,-0.0123,-0.0125,0,0,0,0,0,0,0,0,0,0,0,0,0,0.0094,0.0094,0.0052,0.0052,0.0051,-0.0002,-0.0002,-0.0003,-0.0047,-0.0048,-0.0048,-0.0049,-0.0121,-0.0123,-0.0125,0,0,0,0,0,0,0,0,0,0,0,0,0,0.0061,0.0094,0.0052,0.0023,0.002,-0.0001,-0.0002,-0.0003,-0.0047,-0.0048,-0.0048,-0.0049,-0.0121,-0.0123,-0.0125,-0.0128,0,0,-0.0132,-0.0134,0,0,0,0,0,0,0,0,0.0063,0.006,0.0028,0.0025,0.0022,-0.0018,-0.0014,-0.0046,-0.0047,-0.0022,-0.0049,-0.0049,-0.0088,-0.0093,-0.0103,-0.0131,-0.0134,-0.0133,-0.0134,-0.0135,-0.0136,0,0,0,0,0,0,0,0.0066,0.0062,0.003,0.0028,0.0024,0.0005,-0.0,-0.0021,-0.0052,-0.0025,-0.0028,-0.0032,-0.009,-0.01,-0.0105,-0.0136,-0.0133,-0.0135,-0.0136,-0.0137,-0.0215,-0.0216,0,0,0,0,0,0,0.0076,0.0064,0.0032,0.0029,0.0042,0.0005,-0.0001,-0.0005,-0.0051,-0.0059,-0.0032,-0.0034,-0.0096,-0.0102,-0.0107,-0.0138,-0.0135,-0.0137,-0.0139,-0.0215,-0.0215,-0.0216,0,0,0,0,0,0,0.0077,0.0073,0.0034,0.0046,0.0039,0.0005,0.0001,-0.0006,-0.0026,-0.0057,-0.0065,-0.0046,-0.0096,-0.0104,-0.0136,-0.014,-0.0138,-0.0141,-0.0214,-0.0215,-0.0216,-0.0184,0,0,0,0,0,0,0.0078,0.0074,0.007,0.0046,0.0039,0.0014,0.0001,-0.0006,-0.0027,-0.0031,-0.0071,-0.0078,-0.0098,-0.0132,-0.0138,-0.0144,-0.0142,-0.0213,-0.0214,-0.0215,-0.0184,-0.0183,-0.0183,0,0,0,0,0,0.008,0.0076,0.007,0.0066,0.0037,0.0014,0.0008,-0.0018,-0.0027,-0.0038,-0.0065,-0.0077,-0.0144,-0.0134,-0.0141,-0.0148,-0.0212,-0.0214,-0.0215,-0.0184,-0.0184,-0.0183,0,0,0,0,0,0,0.0091,0.0071,0.0064,0.0054,0.0034,0.0007,-0.0006,-0.002,-0.0049,-0.0055,-0.0083,-0.0092,-0.0126,-0.0142,-0.013,-0.0176,-0.0182,-0.0184,-0.0156,-0.0155,-0.0155,-0.0116,-0.0144,0,0,0,0,0,0.0095,0.0087,0.0065,0.0056,0.0047,0.0021,0.0008,-0.0008,-0.0034,-0.0049,-0.0076,-0.0107,-0.0135,-0.0149,-0.018,-0.0197,-0.0221,-0.0209,-0.0208,-0.0207,-0.0183,-0.0232,-0.0233,-0.0221,-0.0221,-0.0221,0,0,0.0097,0.0085,0.008,0.0058,0.004,0.0032,0.0011,-0.001,-0.0014,-0.0051,-0.0074,-0.011,-0.0143,-0.017,-0.0185,-0.0182,-0.0229,-0.0209,-0.0208,-0.0183,-0.0234,-0.0235,-0.0236,-0.0222,-0.0222,-0.0222,0,0,0.0102,0.0087,0.0083,0.007,0.0047,0.0033,0.0028,-0.0003,-0.0018,-0.0043,-0.0072,-0.0102,-0.015,-0.0165,-0.018,-0.0193,-0.0231,-0.0218,-0.0175,-0.0224,-0.0225,-0.0226,-0.0275,-0.028,-0.021,-0.0209,-0.0209,0,0.0104,0.0103,0.0077,0.0073,0.0072,0.0036,0.0039,0.0019,-0.0019,-0.0016,-0.0049,-0.0106,-0.014,-0.015,-0.016,-0.0188,-0.0228,-0.0172,-0.0222,-0.0223,-0.0224,-0.0274,-0.028,-0.0208,-0.0208,-0.0208,-0.0209,0,0.0108,0.0109,0.0105,0.0095,0.0086,0.008,0.0058,0.0044,0.0021,0.001,-0.0018,-0.0071,-0.0101,-0.0124,-0.0146,-0.0169,-0.02,-0.0222,-0.0217,-0.0223,-0.0276,-0.0283,-0.0206,-0.0207,-0.0207,-0.0207,0,0,0.0108,0.0111,0.0109,0.0124,0.0103,0.0101,0.0095,0.0094,0.0103,0.0053,0.0054,0.0003,-0.0029,-0.0047,-0.0091,-0.0121,-0.018,-0.0172,-0.0175,-0.0208,-0.03,-0.0293,-0.0301,-0.0222,-0.0223,-0.0223,-0.0339,0,0.012,0.0139,0.0132,0.0153,0.0165,0.0148,0.0157,0.0152,0.0127,0.0111,0.0068,0.0034,-0.0001,-0.0034,-0.0068,-0.0167,-0.0196,-0.0147,-0.0298,-0.0301,-0.0285,-0.0307,-0.0226,-0.0344,-0.0346,-0.0347,-0.0348,0,0.0124,0.0143,0.0173,0.0213,0.0217,0.0222,0.0241,0.0242,0.022,0.0195,0.0158,0.0102,0.004,0.0,-0.0133,-0.0111,-0.0189,-0.0252,-0.0259,-0.0259,-0.0306,-0.0335,-0.0361,-0.036,-0.0359,-0.0359,-0.0358,0,0.0146,0.0174,0.0209,0.0216,0.0245,0.0263,0.0274,0.0273,0.0276,0.023,0.0197,0.0133,0.0049,-0.0038,-0.0182,-0.0174,-0.0333,-0.0346,-0.0398,-0.04,-0.0384,-0.0381,-0.0411,-0.041,-0.041,-0.041,-0.0409,0,0.0165,0.0191,0.0225,0.0243,0.0295,0.0301,0.0336,0.0334,0.0316,0.0301,0.0231,0.0167,0.0028,-0.0086,-0.018,-0.0323,-0.0343,-0.0383,-0.0424,-0.0372,-0.0367,-0.039,-0.0386,-0.0414,-0.0413,-0.0412,-0.0412,0,0.0175,0.0196,0.0243,0.0289,0.0303,0.0337,0.0362,0.0373,0.0352,0.031,0.0281,0.0157,-0.0001,-0.0117,-0.029,-0.0346,-0.046,-0.0494,-0.0433,-0.047,-0.0491,-0.0484,-0.0563,-0.0563,-0.0564,-0.0564,-0.0565,0,0.0181,0.0204,0.0268,0.0294,0.0311,0.0354,0.0371,0.0381,0.0366,0.0291,0.0248,0.0105,0.001,-0.0214,-0.0339,-0.0494,-0.0501,-0.0556,-0.0498,-0.0472,-0.0505,-0.0497,-0.049,-0.0565,-0.0566,-0.0566,-0.0566,0,0.0189,0.021,0.0246,0.0296,0.0322,0.0358,0.0369,0.0362,0.034,0.0327,0.0218,0.0106,-0.0067,-0.0224,-0.0346,-0.0455,-0.0519,-0.0562,-0.0561,-0.0506,-0.0477,-0.0507,-0.0499,-0.0568,-0.0567,-0.0567,-0.0567,0,0.018,0.0205,0.024,0.0281,0.0316,0.0318,0.0349,0.032,0.0317,0.025,0.0202,0.0049,-0.004,-0.0208,-0.033,-0.0428,-0.0439,-0.0447,-0.0452,-0.0452,-0.0373,-0.0316,-0.0388,0,0,0,0,0,0.0157,0.0168,0.0213,0.0247,0.0281,0.0294,0.0314,0.0331,0.031,0.0249,0.0241,0.0098,-0.0086,-0.0183,-0.0277,-0.0353,-0.0473,-0.0467,-0.0489,-0.0578,-0.0576,-0.0499,0,0,0,0,0,0,0.0134,0.0166,0.0193,0.0193,0.0207,0.0228,0.024,0.0242,0.0219,0.0201,0.0109,0.0084,-0.0096,-0.003,-0.028,-0.0315,-0.0338,-0.0547,-0.0548,-0.0579,-0.0577,-0.0575,-0.0496,0,0,0,0,0]}]]